Jendouba, Tunisia

2:17 AM CET on December 13, 2019 (GMT +0100)
Jendouba

Weather History for DTTN - August, 2019

Change the Weather History Date:

Monday, August 5, 2019

  Actual Average Record
Temperature  
Mean Temperature 90 °F -  
Max Temperature 106 °F 96 °F - ()
Min Temperature 73 °F 65 °F - ()
Cooling Degree Days 24    
Growing Degree Days 40 (Base 50)    
Moisture  
Dew Point 56 °F    
Average Humidity 30    
Maximum Humidity 61    
Minimum Humidity 9    
Precipitation  
Precipitation 0.00 in 0.02 in - ()
Sea Level Pressure  
Sea Level Pressure 29.90 in    
Wind  
Wind Speed 5 mph ()    
Max Wind Speed 15 mph    
Max Gust Speed -    
Visibility 6.5 miles    
Events      
T = Trace of Precipitation, MM = Missing Value Source: Averaged Metar Reports

Daily Weather History Graph

Daily Weather History Graph

Search for Another Location

Airport or City:

Astronomy

Aug. 05, 2019 Rise Set
Actual Time 5:33 AM CET 7:27 PM CET
Civil Twilight 5:05 AM CET 7:55 PM CET
Nautical Twilight 4:31 AM CET 8:29 PM CET
Astronomical Twilight 3:54 AM CET 9:05 PM CET
Moon 10:23 AM CET (8/5) 10:39 PM CET (8/5)
Length of Visible Light 14h 49m
Length of Day
13h 53m
Waxing Crescent, 25% of the Moon is Illuminated
Aug 5
Waxing Crescent
Aug 7
First Quarter
Aug 15
Full
Aug 23
Last Quarter
Aug 30
New

Hourly Weather History & Observations

Time (CET) Temp. Heat Index Dew Point Humidity Pressure Visibility Wind Dir Wind Speed Gust Speed Precip Events Conditions
12:00 AM 82.4 °F 81.7 °F 55.4 °F 39% 29.95 in 5.0 mi Variable 2.3 mph - N/A   Partly Cloudy
1:00 AM 80 °F - 55 °F 32% 29.95 in 5 mi NE 2.3 mph - -   Scattered Clouds
5:00 AM 75.2 °F - 57.2 °F 53% 29.95 in 5.0 mi Variable 2.3 mph - N/A   Unknown
7:00 AM 78 °F - 63 °F 50% 29.97 in 6 mi NNE 3.5 mph - -  
7:00 AM 77.0 °F - 62.6 °F 61% 29.98 in - NNE 3.5 mph - N/A   Clear
8:00 AM 80.6 °F 81.8 °F 62.6 °F 54% 29.98 in - NE 3.5 mph - N/A   Clear
9:00 AM 86.0 °F 86.1 °F 60.8 °F 43% 29.98 in - ENE 3.5 mph - N/A   Clear
10:00 AM 89 °F - 59 °F 27% 29.96 in 9 mi ENE 2.3 mph - -  
10:00 AM 89.6 °F 88.9 °F 59.0 °F 36% 29.98 in - Variable 2.3 mph - N/A   Clear
11:00 AM 93.2 °F 92.6 °F 59.0 °F 32% 29.98 in - ENE 3.5 mph - N/A   Clear
1:00 PM 100 °F - 56 °F 14% 29.90 in 9 mi NNE 6.9 mph - -  
1:00 PM 100.4 °F 98.8 °F 55.4 °F 22% 29.89 in - NNE 6.9 mph - N/A   Clear
2:00 PM 104.0 °F 102.3 °F 53.6 °F 19% 29.86 in - ENE 5.8 mph - N/A   Clear
3:00 PM 104.0 °F - 51.8 °F 17% 29.83 in - ENE 6.9 mph - N/A   Clear
4:00 PM 106 °F - 51 °F 9% 29.84 in 9 mi ENE 6.9 mph - -   Clear
4:00 PM 105.8 °F - 50.0 °F 15% 29.83 in - ENE 6.9 mph - N/A   Clear
5:00 PM 105.8 °F - 51.8 °F 17% 29.80 in - ENE 11.5 mph - N/A   Clear
6:00 PM 104.0 °F 102.9 °F 55.4 °F 20% 29.86 in - ENE 15.0 mph - N/A   Clear
7:00 PM 100 °F - 55 °F 14% 29.83 in 9 mi ENE 13.8 mph - -   Scattered Clouds
7:00 PM 100.4 °F 98.8 °F 55.4 °F 22% 29.83 in 6.2 mi ENE 13.8 mph - N/A   Partly Cloudy
8:00 PM 95.0 °F 93.0 °F 55.4 °F 26% 29.86 in 6.2 mi NE 9.2 mph - N/A   Partly Cloudy
10:00 PM 89 °F - 55 °F 22% 29.91 in 5 mi NE 6.9 mph - -   Scattered Clouds
10:00 PM 89.6 °F 87.7 °F 55.4 °F 31% 29.89 in 5.0 mi NE 6.9 mph - N/A   Partly Cloudy
11:00 PM 86.0 °F 84.2 °F 53.6 °F 33% 29.89 in 5.0 mi NE 6.9 mph - N/A   Partly Cloudy